GPS BIIR-08 (27663 NORAD) Tracking and Keplerian Element Data

This shows tracking and keplerian element data for the satellite.

Feedback or suggestion? Click here.




ElementValue
Catalog27663
NameGPS BIIR-08
Epoch Orbit16131
Epoch Day34.53922176
Epoch Year2025
RAAN234.7886
Inclination55.0178
Eccentricity0.014336
Argument of Perigee49.4433
Mean Anonmoly321.177
Mean Motion2.00561636
Decay Rate7.9E-07
L11 27663U 03005A 25034.53922176 .00000079 00000+0 00000+0 0 9995
L22 27663 55.0178 234.7886 0143360 49.4433 321.1770 2.00561636161316



Live tracking and technical data element details for GPS BIIR-08 (NORAD 27663). GPS BIIR-08 can be tracked NOW for your location showing map with azimuth and elevation plus other details from your city location.







IsCatalogInMostPopularTable: catalog: 27663, numindb: 359
Update: records affected: 1



GetName: 27663 GPS BIIR-08

Hit Count: updated at: Sat, 24 May 2025 16:54:04 GMT